Tracking 25710 objects as of 5-Jul-2022
HD Live streaming from Space Station
objects crossing your sky now

STARLINK-1740

Track STARLINK-1740 now!
10-day predictions
STARLINK-1740 is classified as:


NORAD ID: 46566
Int'l Code: 2020-070AL
Perigee: 553.0 km
Apogee: 555.7 km
Inclination: 53.1 °
Period: 95.6 minutes
Semi major axis: 6925 km
RCS: Unknown
Launch date: October 6, 2020
Source: United States (US)
Launch site: AIR FORCE EASTERN TEST RANGE (AFETR)
aabbcc
Your satellite tracking list
Your tracking list is empty




NASA's NSSDC Master Catalog

Two Line Element Set (TLE):
1 46566U 20070AL  22185.96537209 -.00000325  00000-0 -28947-5 0  9992
2 46566  53.0564  68.8223 0001924  64.9533 295.1655 15.06391185 97252
Source of the keplerian elements: AFSPC